Biarritz-Bayonne/Anglet

Airport
ICAO code: 
LFBZ
Summary
ICAO Region: 
EUR
Territory: 
Location: 
Biarritz-Bayonne/Anglet, Aquitaine,
Coordinates: 
Aerial View: 
43° 28' 6.051" N, 1° 31' 22.83" W
Airport WX: 
Fog
Metar
Observation
LFBZ 241600Z AUTO 01004KT CAVOK 14/02 Q1028 NOSIG
Station
Biarritz
Date/Time
2022-01-24 16:00:00
Wind direction
10°
Wind speed
04 kts
Lowest cloud amount
clouds and visibility OK
Temperature
14°C
Dew point
2°C
Humidity
44%
QNH
1028 hPa
Weather condition
n/a

Description

International airport serving Biarritz.

Climatology

Temperate Marine climate/Oceanic climate (Köppen climate classification Cfb). Moderately cool summer and comparatively warm winter with a temperature range of only 14°C. Prevailing south-westerly winds from the Atlantic Ocean.

Runways

Designator Length Width Surface Rops
9/27 2250 45 ASP Yes/Yes
Airport map: 
Aerial View: 

SKYbrary Partners:

Safety knowledge contributed by: